User: anonymous   Login
Location: Unspecified
(0.0000°N, 0.0000°E)
Time: 13:31:59
(UTC+01:00)
Language:

Iridium 15 - Orbit

View from above orbital plane
View from above orbital plane
View from above satellite
View from above satellite

Ground track
Ground track

The orbit data is extracted from the following two-line orbital elements,

1 24869U 97034A   18053.56913599 +.00000014 +00000-0 -21178-5 0  9996
2 24869 086.4159 277.3033 0001613 084.9933 275.1450 14.38614138079667
Epoch (UTC): 22 February 2018 13:39:33
Eccentricity: 0.0001613
inclination: 86.4159°
perigee height: 762 km
apogee height: 764 km
right ascension of ascending node: 277.3033°
argument of perigee: 84.9933°
revolutions per day: 14.38614138
mean anomaly at epoch: 275.1450°
orbit number at epoch: 7966

The dashed part of the orbit path shows where the satellite is in the earth's shadow,  

DLR